Regional Weather Roundup
Issued by NWS

Home | Current Version | Previous Version | Text Only | Print | Product List | Glossary Off
Versions: 1 2 3 4 5 6 7 8 9 10 11 12 13 14 15 16 17 18 19 20 21 22 23 24 25 26 27 28 29 30 31 32 33 34 35 36 37 38 39 40 41 42 43 44 45 46 47 48 49 50

072
ASUS43 KFSD 230110
RWRSD

WEATHER ROUNDUP FOR SOUTH DAKOTA
NATIONAL WEATHER SERVICE SIOUX FALLS SD
800 PM CDT TUE AUG 22 2017

NOTE: "FAIR" INDICATES FEW OR NO CLOUDS BELOW 12,000 FEET WITH NO
SIGNIFICANT WEATHER AND/OR OBSTRUCTIONS TO VISIBILITY.


SDZ001>005-009-010-012>017-230200-
NORTHWEST AND NORTH CENTRAL SOUTH DAKOTA

CITY           SKY/WX    TMP DP  RH WIND       PRES   REMARKS
BUFFALO          N/A     79  43  27 E12       30.04F
FAITH            N/A     75  47  36 E15       30.11S
MOBRIDGE       CLEAR     71  52  50 E6        30.10F
$$

SDZ012>016-024>037-041>051-057-063-072>074-230200-
SOUTHWEST AND SOUTH CENTRAL SOUTH DAKOTA

CITY           SKY/WX    TMP DP  RH WIND       PRES   REMARKS
RAPID CTY ARPT PTCLDY    78  47  33 E10       30.09F
PIERRE         CLEAR     74  52  46 SE6       30.09F
CUSTER         CLOUDY    71  47  42 SE8       30.23F
ELLSWORTH AFB  CLEAR     81  46  29 E9        30.09F
PHILIP         CLEAR     80  47  31 SE15      30.07F
PINE RIDGE     CLEAR     78  48  34 S9        30.12F
SPEARFISH      LGT RAIN  79  43  27 E10       30.14F
WINNER         FAIR      72  58  61 E7        30.14F
$$

SDZ004>011-016>023-039-040-230200-
NORTHEAST SOUTH DAKOTA

CITY           SKY/WX    TMP DP  RH WIND       PRES   REMARKS
ABERDEEN       CLEAR     71  48  43 N5        30.11S
WATERTOWN      CLEAR     66  49  54 NW7       30.11F
BROOKINGS      CLEAR     67  51  56 NW5       30.13S
SISSETON         N/A     66  54  65 NW6       30.08F
$$

SDZ017-020-022-023-036>040-048>070-230200-
SOUTHEAST SOUTH DAKOTA

CITY           SKY/WX    TMP DP  RH WIND       PRES   REMARKS
SIOUX FALLS    CLEAR     68  56  65 CALM      30.12F
HURON          CLEAR     69  50  50 N7        30.11F
CHAMBERLAIN    CLEAR     73  59  61 SE3       30.13F
MITCHELL       CLEAR     73  51  46 CALM      30.12F
YANKTON        CLEAR     72  52  49 CALM      30.13F
$$

ABBREVIATIONS USED IN REMARKS
   TC - TEMPERATURE IN CELSIUS
  WCI - WIND CHILL INDEX
   HX - HEAT INDEX
  VSB - VISIBILITY





USA.gov is the U.S. government's official web portal to all federal, state and local government web resources and services.